Vertical_Velocity
9 27 1 8 5 5 -5 1 10 4 15 3 2 -1 -3 3 -3 2 1 -3 -0 -2 -3 -1 -2 1 -3 2 3 4 3 2
13 5 2 -8 12 11 0 -5 1 19 -7 -4 2 -2 0 1 2 -0 -2 -3 -2 -1 -2 -2 -1 -0 -2 2 -1 2 2 1
1 20 11 16 -0 1 -3 5 -6 18 41 1 2 -0 -0 10 3 -3 -2 -0 -2 -0 -2 -0 1 -2 -0 2 -1 2 -0 2
1 -2 -2 13 -8 -3 -1 0 2 -0 -6 -1 2 6 4 13 6 -1 -3 -0 -2 -0 -3 -2 0 1 -0 -0 2 0 0 4
1 1 -2 -1 1 -2 -3 3 5 7 5 5 -1 0 3 12 3 1 -2 0 -1 -1 2 -0 0 1 3 -1 1 0 -1 -2
4 2 -1 0 -1 -1 -0 4 9 -1 -1 11 8 3 2 7 -5 -1 -5 0 -1 -1 1 -1 0 3 1 1 1 1 3 1
-0 0 5 -3 0 -2 -3 2 -3 15 10 8 4 1 4 4 9 4 -4 -2 -0 -1 -0 2 2 -2 -1 2 0 -0 1 -2
-0 -1 -2 -0 -3 -1 -2 2 19 7 8 1 2 5 3 -1 2 1 -4 -2 -1 2 3 1 -2 1 2 1 -0 1 -1 -1
-4 -4 -3 1 1 -2 1 -2 13 9 1 4 7 7 8 8 5 4 -2 1 -1 9 2 -2 -1 -0 1 0 1 0 3 1
0 -3 2 -2 1 -2 -0 -4 1 -1 5 7 18 14 12 6 -0 5 14 10 2 3 -2 -3 -2 1 -0 1 -1 -1 0 4
-0 1 -3 2 0 -1 2 3 -4 5 3 4 3 7 1 -2 0 -1 4 -1 5 -2 -1 -2 1 -2 -1 1 -0 3 2 2
-1 -5 -2 0 -0 -2 2 3 -2 4 -2 0 -3 -2 3 -2 -1 2 -1 8 3 1 -3 -1 -0 -2 2 0 -1 2 3 3
0 -3 1 4 -0 -2 -2 9 -3 -3 -3 -2 2 -6 5 3 1 2 7 1 7 -1 3 -3 1 -2 3 -2 0 -1 -3 0
-3 -1 -3 -1 9 7 1 -2 4 -1 -2 1 -3 -0 -1 2 0 0 2 -1 -2 3 -1 3 -0 -1 -2 -2 2 -1 -4 -6
-1 -1 -2 -1 -1 1 0 1 -3 -1 -6 1 -1 -6 2 2 -3 2 1 0 1 -2 4 -3 -0 -0 4 4 -1 1 -4 -2
-0 -1 -0 -1 -1 -2 -1 1 -1 2 -1 -2 8 4 -3 0 -0 -0 3 0 -2 1 -2 -0 1 1 1 3 1 4 3 7
-2 -3 -4 3 -3 -2 -3 1 -8 -4 -0 4 7 7 6 9 1 1 0 0 -1 4 4 -1 -3 3 0 3 -2 3 2 -0
-0 -1 -2 -3 -1 -4 -4 2 -3 -3 -1 -2 -3 -2 3 -1 -3 -3 -5 -1 1 2 2 -3 -2 -2 5 3 -2 1 0 -1
-3 -1 -1 -3 -3 -2 -3 -2 -7 -4 -3 -0 -2 -1 -5 -7 -1 -5 0 -6 -8 -1 2 -4 -2 -2 -4 0 -0 0 -3 4
-2 -2 -2 -1 -0 -0 0 -1 -2 -3 -2 -1 -2 1 -2 -2 0 -1 -3 1 3 -3 2 -1 1 1 0 4 -3 -1 1 3
Height
5753 5753 5757 5761 5765 5766 5770 5771 5770 5774 5778 5788 5794 5798 5801 5809 5813 5816 5819 5820 5820 5822 5825 5828 5831 5833 5834 5833 5834 5835 5837 5838
5747 5748 5752 5756 5758 5762 5765 5767 5766 5766 5772 5780 5787 5791 5795 5801 5807 5812 5814 5814 5816 5819 5822 5825 5827 5829 5829 5829 5829 5830 5832 5834
5747 5745 5747 5749 5754 5757 5759 5758 5760 5759 5761 5773 5779 5785 5790 5796 5801 5806 5809 5810 5813 5816 5819 5821 5822 5824 5825 5824 5825 5826 5827 5829
5746 5746 5747 5748 5750 5751 5753 5756 5755 5757 5760 5764 5773 5778 5782 5789 5794 5800 5803 5805 5809 5812 5814 5817 5818 5819 5821 5821 5821 5822 5822 5823
5744 5743 5745 5744 5748 5750 5749 5745 5744 5747 5754 5760 5766 5772 5778 5783 5787 5794 5798 5801 5803 5806 5810 5812 5814 5816 5816 5816 5817 5817 5818 5819
5744 5743 5744 5744 5745 5744 5742 5741 5738 5743 5747 5755 5763 5769 5774 5776 5781 5787 5792 5796 5797 5801 5804 5805 5809 5810 5810 5811 5812 5812 5813 5815
5740 5738 5738 5740 5739 5738 5737 5737 5737 5741 5745 5753 5757 5762 5767 5769 5775 5781 5787 5790 5794 5797 5799 5800 5802 5803 5804 5806 5806 5807 5807 5809
5735 5734 5733 5735 5736 5736 5735 5733 5737 5741 5744 5748 5754 5758 5762 5765 5771 5775 5780 5784 5788 5791 5794 5794 5795 5796 5797 5799 5800 5801 5802 5805
5732 5730 5729 5727 5729 5732 5732 5731 5735 5738 5741 5746 5750 5755 5759 5764 5766 5769 5773 5778 5783 5786 5786 5788 5790 5791 5793 5795 5796 5797 5799 5801
5728 5726 5724 5722 5723 5725 5727 5729 5731 5735 5739 5744 5750 5754 5758 5760 5761 5763 5767 5774 5778 5778 5780 5782 5784 5786 5787 5789 5791 5793 5795 5798
5724 5722 5719 5718 5719 5722 5725 5728 5730 5734 5736 5740 5745 5750 5753 5756 5759 5761 5765 5769 5773 5773 5775 5777 5779 5781 5782 5784 5787 5789 5791 5793
5719 5717 5715 5714 5718 5722 5724 5727 5728 5732 5734 5737 5741 5746 5749 5753 5757 5759 5763 5766 5768 5769 5771 5772 5774 5776 5778 5779 5781 5785 5787 5789
5717 5714 5713 5715 5718 5721 5724 5728 5727 5730 5733 5737 5741 5745 5746 5750 5753 5756 5758 5760 5762 5764 5766 5768 5770 5771 5774 5776 5778 5781 5784 5786
5717 5714 5713 5715 5719 5721 5723 5726 5728 5730 5733 5736 5739 5743 5744 5747 5749 5751 5753 5756 5757 5759 5761 5763 5766 5769 5771 5772 5776 5779 5780 5781
5719 5718 5715 5716 5717 5718 5719 5723 5726 5727 5730 5734 5737 5739 5741 5743 5746 5748 5750 5752 5754 5755 5757 5761 5762 5765 5767 5770 5772 5773 5774 5775
5720 5719 5718 5717 5717 5717 5718 5720 5723 5725 5728 5731 5733 5735 5737 5738 5740 5744 5746 5746 5748 5751 5754 5756 5759 5761 5763 5765 5767 5767 5767 5769
5718 5719 5719 5719 5719 5719 5719 5717 5719 5721 5724 5726 5729 5730 5733 5735 5737 5738 5740 5741 5744 5748 5750 5753 5754 5757 5758 5760 5761 5761 5761 5762
5716 5717 5718 5718 5718 5719 5719 5719 5721 5722 5724 5725 5725 5727 5730 5733 5734 5737 5737 5739 5740 5742 5746 5748 5750 5751 5753 5753 5753 5755 5756 5756
5715 5715 5716 5716 5717 5717 5719 5721 5722 5723 5724 5725 5727 5726 5727 5730 5734 5734 5737 5739 5740 5741 5742 5745 5745 5746 5747 5748 5747 5748 5749 5747
5714 5714 5714 5715 5716 5718 5718 5719 5720 5720 5720 5721 5722 5722 5726 5726 5729 5733 5733 5735 5738 5738 5740 5742 5741 5743 5742 5742 5742 5741 5740 5738